Tacoma Narrows, WA

12:57 PM PDT on June 23, 2017 (GMT -0700)
Tacoma Narrows

Weather History for KTIW - July, 2013

Change the Weather History Date:

Thursday, July 11, 2013

  Actual Average Record
Temperature  
Mean Temperature 60 °F -  
Max Temperature 69 °F 72 °F 93 °F (2007)
Min Temperature 51 °F 53 °F 50 °F (2008)
Degree Days  
Heating Degree Days 5    
Growing Degree Days 10 (Base 50)    
Moisture  
Dew Point 45 °F    
Average Humidity 63    
Maximum Humidity 80    
Minimum Humidity 39    
Precipitation  
Precipitation 0.00 in - - ()
Sea Level Pressure  
Sea Level Pressure 30.05 in    
Wind  
Wind Speed 5 mph (ENE)    
Max Wind Speed 12 mph    
Max Gust Speed -    
Visibility 10 miles    
Events      
Averages and records for this station are not official NWS values.
T = Trace of Precipitation, MM = Missing Value Source: NWS Daily Summary

Daily Weather History Graph

Daily Weather History Graph

Search for Another Location

Airport or City:

Trip Planner

Search our weather history database for the weather conditions in past years. The results will help you decide how hot, cold, wet, or windy it might be!

Date:

Astronomy

Jul. 11, 2013 Rise Set
Actual Time 5:25 AM PDT 9:05 PM PDT
Civil Twilight 4:47 AM PDT 9:44 PM PDT
Nautical Twilight 3:54 AM PDT 10:36 PM PDT
Astronomical Twilight 2:42 AM PDT 11:47 PM PDT
Moon 9:07 AM PDT (7/11) 10:29 PM PDT (7/11)
Length of Visible Light 16h 56m
Length of Day
15h 39m
Waxing Crescent, 11% of the Moon is Illuminated
Jul 11
Waxing Crescent
Jul 15
First Quarter
Jul 22
Full
Jul 29
Last Quarter
Aug 6
New

Hourly Weather History & Observations

Time (PDT) Temp. Dew Point Humidity Pressure Visibility Wind Dir Wind Speed Gust Speed Precip Events Conditions
12:53 AM 54.0 °F 46.0 °F 75% 30.02 in 10.0 mi SSW 5.8 mph - N/A   Clear
1:53 AM 52.0 °F 45.0 °F 77% 30.01 in 10.0 mi South 5.8 mph - N/A   Clear
2:53 AM 52.0 °F 45.0 °F 77% 30.02 in 10.0 mi SSE 3.5 mph - N/A   Clear
3:53 AM 52.0 °F 45.0 °F 77% 30.04 in 10.0 mi Calm Calm - N/A   Mostly Cloudy
4:01 AM 51.8 °F 44.6 °F 76% 30.04 in 10.0 mi Calm Calm - N/A   Overcast
4:53 AM 52.0 °F 46.0 °F 80% 30.05 in 10.0 mi SE 4.6 mph - N/A   Overcast
5:53 AM 52.0 °F 46.0 °F 80% 30.06 in 10.0 mi South 4.6 mph - N/A   Overcast
6:53 AM 53.1 °F 46.0 °F 77% 30.07 in 10.0 mi Calm Calm - N/A   Overcast
7:53 AM 54.0 °F 46.0 °F 75% 30.08 in 10.0 mi Calm Calm - N/A   Overcast
8:53 AM 55.0 °F 46.0 °F 72% 30.09 in 10.0 mi Calm Calm - N/A   Overcast
9:53 AM 57.9 °F 46.9 °F 67% 30.08 in 10.0 mi Variable 3.5 mph - N/A   Overcast
10:53 AM 55.9 °F 46.0 °F 69% 30.09 in 10.0 mi Calm Calm - N/A   Overcast
11:53 AM 57.9 °F 45.0 °F 62% 30.10 in 10.0 mi SE 3.5 mph - N/A   Mostly Cloudy
12:53 PM 61.0 °F 45.0 °F 56% 30.09 in 10.0 mi SSE 5.8 mph - N/A   Mostly Cloudy
12:56 PM 60.8 °F 44.6 °F 55% 30.09 in 10.0 mi SSE 5.8 mph - N/A   Scattered Clouds
1:53 PM 64.0 °F 46.0 °F 52% 30.08 in 10.0 mi Variable 5.8 mph - N/A   Scattered Clouds
2:53 PM 66.0 °F 45.0 °F 47% 30.06 in 10.0 mi Variable 5.8 mph - N/A   Scattered Clouds
3:53 PM 69.1 °F 43.0 °F 39% 30.06 in 10.0 mi NNW 4.6 mph - N/A   Partly Cloudy
4:53 PM 68.0 °F 44.1 °F 42% 30.04 in 10.0 mi North 9.2 mph - N/A   Partly Cloudy
5:53 PM 69.1 °F 43.0 °F 39% 30.03 in 10.0 mi Variable 5.8 mph - N/A   Scattered Clouds
6:53 PM 66.0 °F 45.0 °F 47% 30.01 in 10.0 mi North 8.1 mph - N/A   Scattered Clouds
7:53 PM 63.0 °F 45.0 °F 52% 30.01 in 10.0 mi North 11.5 mph - N/A   Scattered Clouds
8:53 PM 62.1 °F 46.0 °F 56% 30.01 in 10.0 mi North 10.4 mph - N/A   Mostly Cloudy
9:53 PM 61.0 °F 45.0 °F 56% 30.01 in 10.0 mi North 8.1 mph - N/A   Overcast
10:53 PM 59.0 °F 46.9 °F 64% 30.02 in 10.0 mi North 8.1 mph - N/A   Overcast
11:53 PM 57.9 °F 46.0 °F 65% 30.03 in 10.0 mi North 9.2 mph - N/A   Overcast